Location: Crescent
(42.8242°N, 73.7329°W)
Time: 19:00:00
(UTC+00:00)

Tiros 1 - Pass Details

Date: 24 February 2026
Orbit: 618 x 649 km, 48.4° (Epoch: 10 March)

Event Time Altitude Azimuth Distance (km) Brightness Sun altitude
Rises 15:22:12 0° 294° (WNW) 2,910 10.1 32.6°
Reaches altitude 10° 15:24:34 10° 298° (WNW) 1,997 9.3 32.8°
Maximum altitude 15:29:06 59° 18° (NNE) 720 7.6 33.2°
Drops below altitude 10° 15:33:35 10° 98° (E) 1,979 10.2 33.6°
Sets 15:35:55 0° 103° (ESE) 2,881 11.0 33.8°
